This is the latest recevied weather packets stored in our database for station/object K3PPP. If no packets are shown the sender has not sent any weather packets the latest 10 day(s).
| Time | Temp. | Humidity | Pressure | Rain* | Wind** | Luminosity | Snow |
|---|---|---|---|---|---|---|---|
| 1777821640 | 6.67° C | 51% | 1017.1 hPa | 0 mm | - | 750 W/m² | - |
| 1777821339 | 7.22° C | 54% | 1017.1 hPa | 0 mm | - | 690 W/m² | - |
| 1777821035 | 6.67° C | 54% | 1017.2 hPa | 0 mm | - | 684 W/m² | - |
| 1777820731 | 6.67° C | 51% | 1017.1 hPa | 0 mm | - | 678 W/m² | - |
| 1777820427 | 6.67° C | 57% | 1017 hPa | 0 mm | - | 673 W/m² | - |
| 1777820125 | 6.67° C | 55% | 1017.1 hPa | 0 mm | - | 667 W/m² | - |
| 1777819822 | 6.11° C | 56% | 1017.1 hPa | 0 mm | - | 663 W/m² | - |
| 1777819520 | 5.56° C | 57% | 1017.2 hPa | 0 mm | - | 682 W/m² | - |
| 1777819217 | 5° C | 59% | 1017.3 hPa | 0 mm | - | 656 W/m² | - |
| 1777818914 | 5° C | 62% | 1017.5 hPa | 0 mm | - | 188 W/m² | - |
| 1777818610 | 5° C | 61% | 1017.2 hPa | 0 mm | - | 737 W/m² | - |
| 1777818308 | 5.56° C | 59% | 1017.2 hPa | 0 mm | - | 193 W/m² | - |
| 1777818003 | 5° C | 59% | 1017.4 hPa | 0 mm | - | 629 W/m² | - |
| 1777817701 | 5.56° C | 58% | 1017.3 hPa | 0 mm | - | 601 W/m² | - |
| 1777817398 | 5.56° C | 60% | 1017.3 hPa | 0 mm | - | 584 W/m² | - |
| 1777817094 | 5.56° C | 61% | 1017.2 hPa | 0 mm | - | 597 W/m² | - |
| 1777816790 | 5° C | 60% | 1017 hPa | 0 mm | - | 161 W/m² | - |
| 1777816489 | 5° C | 60% | 1017.1 hPa | 0 mm | - | 564 W/m² | - |
| 1777816186 | 5° C | 60% | 1017.2 hPa | 0 mm | - | 498 W/m² | - |
| 1777815883 | 5.56° C | 61% | 1017 hPa | 0 mm | - | 147 W/m² | - |
| 1777815580 | 4.44° C | 64% | 1017.1 hPa | 0 mm | - | 510 W/m² | - |
| 1777815278 | 4.44° C | 64% | 1017.1 hPa | 0 mm | - | 474 W/m² | - |
| 1777814974 | 4.44° C | 63% | 1016.9 hPa | 0 mm | - | 447 W/m² | - |
| 1777814671 | 4.44° C | 66% | 1016.9 hPa | 0 mm | - | 410 W/m² | - |
| 1777814367 | 4.44° C | 66% | 1017 hPa | 0 mm | - | 401 W/m² | - |
* Rain latest hour (hover to see other rain measurements)
** Current wind speed in m/s (hover to see current wind gust speed)